OBJECT C, 57168

Orbit data source: Space-Track

You're viewing an Uncataloged Satellite

Recently launched and/or uncataloged satellites may have evolving metadata. Metadata may include but not limited to: Owner, Maufacturer, Bus, Motor, and Mission.

OBJECT C, 57168 is a satellite in SSO that was launched on Tue, 27 Jun 2023 UTC via a SOYUZ-2-1B launch vehicle from the Vostochny Cosmodrome (VOSTO). Unknown objects in Earth's orbit typically refer to objects detected orbiting the Earth but have not yet been identified or cataloged. These objects could be anything from previously untracked satellites, spent rocket stages, debris from satellite collisions, or even natural meteoroids temporarily captured by Earth's gravity.

Loading next visibility...
Identifier
57168, 2023-091C
Orbit
SSO
Country
Flag of TBDTBD
Related business
None
Manufacturer
Unknown
Mission
Operational Amateur Technology
Bus & Motor
Unknown
Mass
Unknown
Launch date (UTC)
2023-06-27 (3 years ago)
Launch vehicle
SOYUZ-2-1B
Launch site
Vostochny Cosmodrome (VOSTO)
Object type
Unknown
Shape & HBR
Box, 0.1 m
Radar Cross Section
0.035 m², Medium (>0.1 m² and < 1m²)

Expand to show TLE details & history
Last TLE update: 17 hours ago

TLE from 17 hours ago
0 OBJECT C
1 57168U 23091C   26145.61144693  .00008569  00000-0  33441-3 0  9990
2 57168  97.5039 207.8366 0011625 178.2984 181.8296 15.26105478160818
Epoch: 2026-05-25T14:40Z
TLE epoch observation values (Epoch: 2026-05-25T14:40:29.014Z)
Latitude
-0.00002°
Longitude
104.51896°
Altitude
498.543 km
Speed
7.611 km/s
True Right ascension
13h 51m 20s
True Declination
0° 00' 00"
Sunlit
Object was in full shadow at epoch
Visualization orbit readout
Latitude
Unknown
Longitude
Unknown
Altitude
Unknown
Speed
Unknown
Apparent Right ascension
Unknown
Apparent Declination
Unknown
Sunlit
N/A
Visualization observer readout
Local Sidereal Time
17:20:20
Azimuth
Unknown
Elevation
Unknown
Doppler factor
Unknown
Orbital elements
Apogee altitude
492.408 km
Perigee altitude
476.452 km
Semi-major axis
6,862.567 km
Eccentricity
0.00116
Inclination
97.5039°
RAAN
207.8366°
Arg. of periapsis
178.2984°
True anomaly
181.82535°
Mean anomaly
181.8296°
Eccentric anomaly
181.82748°
Mean motion
3.8178 °/min
Orbital period
94.3 mins
BSTAR
0.00033441
Loading maneuver chart data...
Computing Atmospheric mass density...
Loading historical data...
Loading historical data...
Loading historical data...
Loading historical data...
Loading historical data...
Loading historical data...
Loading historical data...

Documentation

Showing up to 5 results
|